sat.trackr.live / text

‹ back to catalog

STARLINK-11378 [DTC]

NORAD 62020 · 2024-213N

PAYLOAD ACTIVE UNKNOWN

§ Identity

Operator
Country
US
Launch date
2024-11-18
Launch site
AFWTR
Launch vehicle
Mass (kg)
RCS (m²)

Purposes: comms

External: N2YO · Heavens-Above · Gunter

§ Orbital elements

Epoch: 2026-09-21T21:06:10.711296Z

Period
91.73 min
Inclination
53.1567°
Eccentricity
0.0000509
Mean motion
15.69838810 rev/d
Perigee alt
359.0 km
Apogee alt
359.7 km
Semi-major
6,737.5 km
B*
1.7251e-3
RAAN
153.7746°
Arg perigee
121.9433°
Mean anomaly
238.1634°
Rev number
10,573

§ Raw data

STARLINK-11378 [DTC]1 62020U 24213N   26264.87929064  .00215056  00000+0  17251-2 0  99932 62020  53.1567 153.7746 0000509 121.9433 238.1634 15.69838810105731

JSON: /api/v1/satellites/62020 · /tle

For live sub-satellite position, see the globe view (requires WebGL).

§ Visibility from observer

Set your observer location to see the next 7 days of passes ≥ 10°. The values pass through the URL so the page stays shareable.

No JS? Fill the form by hand. The geolocation button needs JavaScript.